Location: Irma
(52.9170°N, 111.2330°W)
Time: 15:15:40
(UTC-06:00)

Cosmos 1633 Rocket - Visible Passes

Search period start: 01 May 2016 00:00
Search period end: 11 May 2016 00:00
Orbit: 608 x 623 km, 82.5° (Epoch: 01 May)

Date Brightness Start Highest point End Pass type
(mag) Time Alt. Az. Time Alt. Az. Time Alt. Az.
04 May 6.3 04:28:42 10° E 04:29:53 11° ENE 04:31:04 10° ENE visible
05 May 5.8 04:43:01 10° SE 04:45:57 18° E 04:48:55 10° NE visible
06 May 5.2 04:58:22 10° SSE 05:02:07 28° E 05:05:53 10° NNE visible
08 May 6.2 03:56:46 10° E 03:57:43 11° ENE 03:58:40 10° ENE visible
09 May 5.7 04:10:54 10° SE 04:13:47 17° E 04:16:41 10° NE visible
10 May 5.1 04:26:14 10° SE 04:29:56 27° E 04:33:41 10° NNE visible
